Regional Weather Roundup
Issued by NWS

Home | Current Version | Previous Version | Text Only | Print | Product List | Glossary Off
Versions: 1 2 3 4 5 6 7 8 9 10 11 12 13 14 15 16 17 18 19 20 21 22 23 24 25 26 27 28 29 30 31 32 33 34 35 36 37 38 39 40 41 42 43 44 45 46 47 48 49 50

000
ASUS43 KBIS 241810
RWRND

NORTH DAKOTA REGIONAL WEATHER ROUNDUP
NATIONAL WEATHER SERVICE BISMARCK ND
100 PM CDT FRI OCT 24 2014

NOTE: "FAIR" INDICATES FEW OR NO CLOUDS BELOW 12,000 FEET WITH NO
SIGNIFICANT WEATHER AND/OR OBSTRUCTIONS TO VISIBILITY.


NDZ001>003-009>011-017-241900-
NORTHWEST NORTH DAKOTA

CITY           SKY/WX    TMP DP  RH WIND       PRES   REMARKS
WILLISTON      PTSUNNY   62  30  29 W26G38    29.91S
6HR MIN TEMP:  39; 6HR MAX TEMP:  63;

MINOT          SUNNY     65  32  29 W25G32    29.84S
MINOT AFB      SUNNY     64  32  29 W26G38    29.82R
$$

NDZ018>021-031>035-040>046-241900-
SOUTHWEST NORTH DAKOTA

CITY           SKY/WX    TMP DP  RH WIND       PRES   REMARKS
BISMARCK       SUNNY     70  40  33 NW14G22   29.91S
6HR MIN TEMP:  37; 6HR MAX TEMP:  70;

DICKINSON      SUNNY     64  37  36 NW20      29.96S
GARRISON         N/A     65  35  33 W22G32    29.88S
6HR MIN TEMP:  40; 6HR MAX TEMP:  65;

HETTINGER ARPT PTSUNNY   66  35  31 NW20G28   30.00R
$$

NDZ004>008-012>016-024-026-027-054-241900-
NORTHEAST NORTH DAKOTA

CITY           SKY/WX    TMP DP  RH WIND       PRES   REMARKS
GRAND FORKS    MOSUNNY   73  42  32 W15G23    29.74F
GRND FRKS AFB  MOSUNNY   70  41  35 W16G25    29.76R
DEVILS LAKE    MOSUNNY   66  43  42 W22G28    29.78F
$$

NDZ022-023-025-028>030-036>039-047>053-241900-
SOUTHEAST NORTH DAKOTA

CITY           SKY/WX    TMP DP  RH WIND       PRES   REMARKS
FARGO          MOSUNNY   65  41  41 SW9       29.81S
6HR MIN TEMP:  42; 6HR MAX TEMP:  65;

JAMESTOWN      SUNNY     71  41  33 NW12      29.84R
$$




USA.gov is the U.S. government's official web portal to all federal, state and local government web resources and services.